Theta_e
308 308 309 314 316 316 316 315 314 314 316 316 315 315 314 311 318 319 310 308 309 309 315 319 318 314 316 319 324 330 332 336 337 339 340 337 336 339 336 337 334 339 337 340 339
309 308 310 314 315 316 316 315 315 314 316 316 315 316 312 315 321 319 311 312 312 311 311 317 318 318 317 318 319 326 331 333 333 333 334 330 328 339 337 335 337 336 338 340 339
309 308 309 314 315 316 315 315 315 315 315 316 317 316 313 318 315 314 313 313 312 316 317 318 317 318 316 316 318 321 326 326 326 326 325 325 324 334 339 339 339 338 339 340 339
308 308 309 312 314 315 314 314 315 315 315 316 317 316 312 317 313 316 314 314 315 316 317 316 317 316 316 315 316 315 318 323 325 324 323 323 323 327 336 337 331 332 339 339 339
308 308 309 310 312 312 312 313 313 315 315 316 317 315 320 320 316 316 316 315 316 316 318 317 317 316 314 314 314 315 315 317 317 316 317 319 320 323 334 334 332 337 339 339 339
308 308 309 309 310 311 312 312 313 314 315 316 316 316 320 318 317 317 317 316 316 315 317 318 317 317 316 315 313 315 315 316 316 316 316 319 320 319 323 330 336 337 340 339 339
308 308 308 308 309 311 311 312 313 315 315 316 317 314 321 317 319 319 319 318 319 319 317 317 318 317 317 315 316 317 315 314 315 316 316 317 318 320 320 326 333 336 337 340 339
308 308 308 308 309 310 311 312 314 317 317 316 319 315 321 319 320 320 319 318 319 319 319 318 318 317 317 317 317 317 316 315 314 315 316 316 316 317 319 320 324 329 336 338 340
309 308 309 309 309 309 311 313 316 318 317 319 320 319 320 319 320 318 318 319 318 318 319 319 318 318 318 317 315 315 316 315 315 315 315 314 315 315 317 321 321 325 331 335 340
310 310 309 309 309 309 311 314 315 319 316 320 321 320 320 319 318 318 320 320 319 319 319 319 318 317 315 316 321 321 319 318 317 316 316 314 313 314 317 321 321 321 330 335 335
311 311 311 309 309 310 311 313 313 318 315 317 317 319 317 319 318 320 320 319 320 319 318 318 319 319 319 318 319 320 320 320 319 318 315 314 313 313 314 316 320 321 326 333 335
308 310 311 310 310 309 312 311 312 315 317 318 320 319 319 320 319 320 321 320 319 318 318 317 318 320 320 321 321 319 320 318 317 316 314 313 313 313 312 315 318 321 323 325 333
304 304 307 311 313 314 318 312 309 315 318 321 321 320 319 318 320 321 321 320 319 318 319 320 319 321 321 321 321 320 320 320 319 317 316 313 313 312 313 314 316 324 326 332 334
303 303 304 308 311 311 317 309 308 317 320 323 320 321 319 319 320 319 320 319 319 319 319 319 320 321 321 322 321 322 320 321 320 319 318 314 314 312 312 314 316 324 328 333 333
303 303 304 306 311 310 310 309 313 321 321 319 320 318 319 319 319 319 320 319 319 320 319 316 320 321 323 321 320 322 321 320 321 320 318 317 314 312 314 318 319 320 330 332 333
303 304 305 307 311 310 309 311 320 323 322 320 319 319 317 318 319 319 320 320 320 320 315 314 319 321 321 320 321 321 322 321 319 320 319 317 317 316 322 322 321 322 329 332 332
304 304 307 308 309 309 310 318 317 323 318 319 318 316 316 316 318 318 317 315 313 313 312 314 320 319 319 320 321 323 321 321 318 321 322 322 321 318 322 323 323 323 325 331 332
304 305 311 308 309 310 316 314 317 320 318 317 315 314 316 318 318 316 315 314 312 312 312 314 318 318 317 319 321 322 321 322 320 325 326 319 322 325 321 322 323 325 326 328 328
305 305 312 309 308 309 317 313 316 317 316 315 314 315 316 316 315 315 314 316 313 311 313 314 319 317 316 320 320 321 326 318 318 319 324 322 322 323 322 323 321 322 320 321 325
305 309 312 313 308 308 313 315 315 315 314 314 314 315 314 314 315 313 315 315 314 313 312 313 316 314 318 319 320 321 321 325 321 328 321 319 317 319 324 323 319 318 321 322 322
305 310 314 311 311 315 312 313 314 312 314 314 314 314 314 315 313 314 315 315 314 313 313 311 311 311 314 318 319 318 319 324 324 323 328 322 317 317 316 316 315 313 316 320 319
305 309 313 311 313 313 309 313 312 312 313 314 314 314 315 314 313 313 314 315 314 313 314 313 311 311 313 314 317 316 316 322 324 326 324 323 318 312 314 313 314 314 315 316 317
305 309 311 309 311 309 309 313 312 313 313 313 313 314 313 314 313 313 313 314 312 313 313 311 311 312 312 311 312 312 313 314 321 322 322 319 320 313 313 312 313 313 314 314 314
307 308 311 312 313 309 312 312 311 313 313 313 313 313 313 313 312 311 310 312 312 312 313 312 312 312 313 312 311 312 312 312 317 313 315 320 313 311 314 313 312 313 313 313 313
305 307 312 311 312 311 311 311 311 310 313 312 312 312 311 311 310 310 308 308 310 312 311 309 310 311 311 312 312 312 314 315 314 312 312 311 312 312 312 313 312 312 313 313 312
306 307 309 309 311 312 310 310 311 310 309 308 307 309 307 306 307 306 306 307 308 308 307 307 311 311 312 314 314 313 313 314 314 311 311 313 312 310 313 313 312 312 312 312 311
302 308 311 311 311 309 310 310 309 309 309 309 309 307 305 305 307 306 306 306 306 304 304 306 309 310 312 312 314 315 313 313 310 310 309 311 313 311 309 310 310 312 312 311 311
Wind_Speed
9 10 8 8 9 11 16 20 23 24 21 19 18 19 18 14 6 7 10 11 11 9 3 6 2 4 2 5 9 7 2 7 8 9 8 25 5 8 8 8 9 12 15 19 37
10 9 6 8 9 12 15 18 22 24 21 19 20 22 17 9 9 9 13 11 10 11 5 5 8 7 3 5 6 6 5 5 5 9 10 20 9 2 3 3 3 13 16 39 38
9 8 7 7 9 11 15 18 21 24 21 19 21 20 11 6 7 11 13 11 10 10 11 8 9 6 5 10 9 5 10 5 14 23 26 21 20 4 8 5 10 6 14 44 39
8 9 8 8 9 12 15 17 19 22 21 15 18 17 5 9 3 11 11 11 10 9 10 13 7 7 2 3 10 8 14 15 20 29 27 16 14 5 12 6 13 10 16 36 43
9 9 9 9 10 12 14 17 18 20 21 14 15 15 6 3 5 12 11 11 11 10 8 9 12 9 4 8 13 5 6 15 17 21 24 24 9 12 11 7 15 17 32 28 33
10 10 10 11 12 13 15 17 18 19 19 13 13 6 7 2 13 15 13 11 9 9 5 9 8 11 10 8 4 11 21 16 20 22 22 13 9 13 10 6 10 15 37 39 41
11 11 11 12 13 15 16 17 18 18 13 12 10 2 3 4 12 12 14 15 14 14 13 5 7 7 12 7 10 15 7 10 11 15 11 18 13 19 11 8 14 21 29 32 32
13 14 15 15 14 15 16 17 15 14 12 7 9 3 4 7 11 14 16 13 9 13 16 14 8 12 5 7 6 5 4 4 6 7 14 6 25 6 14 18 19 22 25 29 37
15 16 16 16 16 15 15 15 10 7 10 5 8 5 4 7 17 15 12 13 14 10 13 14 8 5 5 2 4 4 5 7 7 5 5 6 19 11 22 21 26 19 28 31 36
16 16 16 16 16 16 15 12 9 1 14 3 6 4 2 14 19 9 10 16 12 12 12 12 4 2 4 3 6 10 7 7 7 6 10 10 10 14 20 21 25 26 25 34 34
16 16 16 16 14 14 16 8 10 2 12 3 5 6 12 15 9 10 7 14 11 12 3 3 1 5 4 4 9 6 8 10 12 13 8 14 15 10 16 20 18 22 16 30 34
15 16 17 16 12 14 12 11 10 7 10 6 6 8 9 9 7 10 7 6 11 7 6 6 4 5 5 8 8 8 10 10 10 7 7 13 14 11 12 10 23 26 27 24 33
16 16 15 15 8 14 12 14 13 9 3 6 2 5 5 7 4 8 6 7 4 5 5 3 10 10 9 8 9 7 7 8 13 9 3 7 10 9 14 14 23 30 23 20 23
16 16 16 13 6 8 6 15 13 6 4 2 2 2 6 5 5 8 10 3 3 5 6 6 4 7 7 9 8 9 4 8 10 5 5 2 11 8 9 14 8 19 26 21 28
15 16 15 14 8 8 13 14 8 1 3 2 2 5 7 5 13 9 10 4 4 5 3 7 5 4 4 5 7 9 16 5 6 5 2 8 2 7 5 10 7 9 27 20 30
15 16 14 12 11 12 14 11 2 3 2 1 3 5 9 13 9 13 3 4 6 4 7 12 4 1 3 9 9 1 4 8 3 2 4 5 5 5 2 3 10 17 27 27 32
14 15 12 11 10 11 11 4 4 4 4 6 4 6 7 5 5 6 4 4 4 6 9 6 4 3 4 6 5 5 4 3 4 2 2 9 3 5 11 10 10 19 21 25 29
13 13 9 10 11 12 9 4 7 3 4 4 4 13 2 5 4 7 9 3 9 5 4 4 8 3 5 4 5 6 4 1 3 5 4 9 7 6 12 15 21 11 10 22 24
11 12 7 10 13 11 5 4 1 3 3 6 9 3 6 8 6 8 5 2 3 6 3 4 6 9 11 4 3 5 3 6 2 2 3 2 5 8 13 6 18 18 33 28 22
9 7 5 6 14 5 4 3 3 3 3 4 2 4 6 8 7 8 3 4 3 4 2 4 6 6 8 3 2 2 7 1 2 5 5 7 11 6 5 7 12 11 12 20 17
6 5 1 3 8 2 2 2 2 5 3 3 4 5 5 5 6 5 4 2 1 5 8 3 1 8 5 3 2 4 3 3 3 1 3 4 5 6 9 9 10 7 22 20 13
1 1 2 8 3 2 1 3 1 3 5 6 5 4 3 6 5 4 3 3 7 3 4 1 2 5 8 9 4 3 3 3 3 3 0 1 3 6 9 7 15 17 17 20 19
3 3 3 3 1 2 5 3 5 2 2 4 4 4 4 3 4 5 5 1 20 3 2 4 3 5 10 7 5 4 5 4 3 3 0 3 3 4 7 11 16 19 20 22 20
4 1 4 5 5 4 0 3 4 4 3 4 5 8 3 3 2 5 5 6 17 9 1 2 2 5 5 9 5 8 6 5 4 2 2 2 1 6 4 7 10 14 15 16 19
9 6 5 2 4 3 2 2 3 4 4 2 4 2 3 2 6 3 4 7 13 7 5 2 3 4 9 15 12 9 4 6 3 2 2 3 3 4 2 7 12 15 15 15 17
8 5 5 3 3 2 3 4 5 2 2 4 3 4 5 3 2 7 3 1 6 5 5 6 4 5 7 6 5 3 6 5 4 6 5 4 5 6 14 16 16 16 15 16 17
19 10 6 4 5 4 3 3 2 3 4 3 2 3 4 6 13 24 27 20 16 4 3 3 1 5 5 8 9 4 4 3 4 4 1 3 1 3 7 13 10 12 17 17 16
Wind_Direction
18 24 33 34 29 18 11 10 7 5 5 7 7 1 352 354 65 53 7 348 342 342 348 25 342 28 171 240 238 221 236 232 228 246 270 289 2 149 189 196 200 240 258 200 163
15 17 21 22 15 7 4 5 3 4 5 7 5 358 1 49 92 35 8 7 5 1 345 30 17 11 241 253 235 196 218 243 260 262 282 297 17 156 141 113 279 231 232 168 161
10 7 7 3 2 358 357 358 358 2 6 11 8 357 7 42 74 2 3 360 1 36 21 356 345 319 268 262 234 246 245 277 288 289 292 291 305 298 164 195 130 302 161 160 164
6 4 357 347 346 348 347 351 352 354 360 2 6 354 353 28 74 350 359 5 19 35 19 357 337 313 248 274 265 259 274 248 258 267 282 287 300 259 191 195 170 159 208 174 170
5 358 350 338 335 338 341 345 346 347 352 350 351 360 34 48 354 345 351 355 11 5 4 349 332 354 352 322 324 277 262 274 293 296 293 298 275 279 209 223 191 187 195 197 170
360 352 344 339 337 339 343 344 342 342 347 353 353 25 41 44 347 354 352 350 350 351 12 6 349 328 304 287 288 295 305 296 297 295 295 292 292 287 280 221 233 191 182 184 171
356 351 348 347 343 343 345 341 341 345 355 357 9 40 25 360 359 357 348 342 345 339 336 316 312 331 323 309 317 317 311 313 299 287 276 296 290 253 270 242 208 199 209 195 197
358 356 354 350 346 342 343 340 341 350 358 12 10 3 331 336 0 345 334 336 330 312 325 339 344 309 241 270 295 304 319 280 265 254 261 206 265 305 276 261 263 233 213 196 192
2 358 355 351 349 346 345 336 343 353 9 18 16 10 350 339 338 335 332 328 331 313 300 303 310 273 288 234 346 307 263 272 300 306 281 185 258 256 256 247 252 249 235 222 195
4 0 357 353 353 348 352 341 338 50 7 51 17 343 314 330 330 339 334 339 332 320 306 244 229 301 306 68 303 308 307 299 293 307 324 299 275 276 267 232 235 246 232 219 215
3 0 358 355 357 356 0 17 15 4 336 281 287 287 312 327 353 339 317 333 324 286 277 207 217 288 307 286 307 289 291 289 296 298 311 293 289 276 286 263 239 241 207 219 216
4 0 358 358 9 5 21 44 34 326 313 330 243 283 324 317 328 2 315 346 333 317 355 7 303 279 303 320 307 299 284 287 290 277 271 289 293 294 276 264 249 239 243 243 226
5 1 359 356 9 9 10 16 359 348 279 310 296 291 287 306 299 304 288 315 283 306 320 278 263 295 305 319 317 317 296 293 278 294 273 299 292 306 297 280 279 233 240 224 186
1 360 360 8 9 356 340 345 344 351 49 199 251 275 308 307 270 303 270 303 299 286 292 269 329 358 355 314 342 311 268 285 295 329 262 217 279 280 282 283 267 238 218 183 201
356 359 357 8 10 11 346 339 342 11 60 243 175 321 313 224 286 295 278 193 229 297 356 283 308 331 301 308 300 269 297 284 279 249 306 286 248 270 282 284 321 285 213 194 197
354 357 358 4 359 349 340 333 22 46 70 357 89 335 351 334 330 340 313 233 287 304 323 310 256 275 251 294 298 293 328 298 286 192 263 214 176 275 295 321 306 330 208 172 183
351 356 358 14 5 358 343 349 41 81 337 359 337 336 313 286 344 340 359 5 58 10 344 326 299 280 261 309 309 310 39 331 337 356 281 9 149 257 322 327 326 306 277 174 165
345 350 12 23 12 0 347 47 54 63 343 359 322 314 237 13 329 350 360 29 29 56 311 342 325 0 305 241 262 312 91 280 316 332 337 353 344 319 321 328 324 16 105 119 129
340 334 351 17 4 349 3 44 49 17 348 331 321 299 347 1 3 15 4 48 59 42 28 331 287 306 309 266 104 323 353 117 325 247 305 272 204 274 285 312 24 28 74 73 83
340 335 306 325 336 345 63 248 108 69 343 333 313 33 343 337 8 6 335 342 354 16 68 277 298 281 302 283 22 262 152 36 53 1 49 19 35 16 227 132 90 51 74 70 77
334 327 311 310 337 62 126 257 77 7 26 6 329 326 312 335 346 313 319 276 330 337 1 5 80 290 350 342 288 336 340 105 129 48 10 342 357 55 74 92 96 94 112 137 136
286 304 179 322 360 221 235 164 179 346 334 270 241 245 257 351 306 314 349 36 8 30 355 305 250 288 283 274 16 304 294 97 97 332 274 199 321 346 103 99 95 90 102 111 116
230 265 242 220 116 321 323 334 190 159 291 326 320 15 8 310 329 290 337 159 10 9 27 329 336 337 344 343 347 338 348 30 129 111 294 97 306 21 53 84 99 103 110 114 118
199 316 192 214 234 170 59 302 359 265 239 238 270 298 317 325 298 298 318 332 344 346 145 113 258 199 225 247 283 302 334 339 101 50 292 232 91 5 92 113 106 105 109 113 114
201 224 200 212 246 181 47 225 284 289 227 289 297 341 13 300 324 269 343 334 339 327 29 62 275 275 267 269 277 263 333 4 53 315 86 316 71 334 52 137 130 124 122 118 120
192 188 189 211 187 145 177 223 218 316 42 288 335 322 22 326 263 288 323 183 250 330 22 357 285 330 295 355 21 295 26 28 47 19 74 91 38 349 67 123 131 133 132 128 129
206 202 182 207 168 127 232 197 122 70 282 255 295 357 326 289 301 291 280 253 242 261 349 264 337 349 275 323 320 57 352 38 94 33 353 90 119 68 45 54 51 151 148 144 140